EW3393 Weather Reports


Display with metric or nautical units.
time (UTC)temp
F
wind
direction
speed
MPH
gust
MPH
rain 1hr
in
rain 24hr
in
rain mn
in
humidity
%
barometer
mb
20260506095824 58 262 13.0 18.0 0.00 0.00 0.00 57 1013.4
20260506095316 58 282 13.0 20.0 0.00 0.00 0.00 56 1013.3
20260506094831 58 288 16.0 20.0 0.00 0.00 0.00 56 1013.4
20260506094323 58 279 15.0 21.0 0.00 0.00 0.00 56 1013.4
20260506093815 58 290 17.0 21.0 0.00 0.00 0.00 57 1013.4
20260506093326 58 289 13.0 20.0 0.00 0.00 0.00 57 1013.5
20260506092823 58 276 14.0 20.0 0.00 0.00 0.00 58 1013.6
20260506092315 58 274 13.0 17.0 0.00 0.00 0.00 59 1013.7
20260506091825 58 286 11.0 15.0 0.00 0.00 0.00 58 1013.8
20260506091316 58 298 11.0 18.0 0.00 0.00 0.00 58 1013.8
20260506090830 58 291 12.0 18.0 0.00 0.00 0.00 58 1013.8
20260506090323 58 273 11.0 17.0 0.00 0.00 0.00 59 1013.9
20260506085832 58 285 14.0 17.0 0.00 0.00 0.00 59 1013.9
20260506085324 58 313 13.0 18.0 0.00 0.00 0.00 59 1013.9
20260506084817 58 302 14.0 19.0 0.00 0.00 0.00 59 1013.9
20260506084314 58 310 13.0 19.0 0.00 0.00 0.00 59 1013.9
20260506083847 59 277 14.0 20.0 0.00 0.00 0.00 59 1014.0
20260506083318 59 304 15.0 23.0 0.00 0.00 0.00 58 1014.1
20260506082832 59 296 17.0 23.0 0.00 0.00 0.00 58 1014.1
20260506082324 59 291 15.0 21.0 0.00 0.00 0.00 58 1014.1
20260506081819 59 300 13.0 23.0 0.00 0.00 0.00 58 1014.1
20260506081331 59 294 18.0 23.0 0.00 0.00 0.00 58 1014.1
20260506080823 59 304 16.0 21.0 0.00 0.00 0.00 58 1014.2
20260506080333 59 295 16.0 22.0 0.00 0.00 0.00 57 1014.2
20260506073325 59 306 19.0 23.0 0.00 0.00 0.00 57 1014.3
20260506072817 59 275 15.0 23.0 0.00 0.00 0.00 57 1014.2
20260506072329 59 297 15.0 20.0 0.00 0.00 0.00 57 1014.1
20260506071842 59 307 14.0 25.0 0.00 0.00 0.00 57 1014.1
20260506071332 59 310 17.0 25.0 0.00 0.00 0.00 57 1014.1
20260506070844 59 298 18.0 27.0 0.00 0.00 0.00 57 1014.0
20260506070314 59 286 15.0 27.0 0.00 0.00 0.00 56 1013.9
20260506062350 60 298 19.0 28.0 0.00 0.00 0.00 54 1013.1
20260506061820 60 289 19.0 27.0 0.00 0.00 0.00 54 1013.0
20260506061331 60 296 20.0 27.0 0.00 0.00 0.00 54 1013.1
20260506060823 60 314 19.0 25.0 0.00 0.00 0.00 54 1013.1
20260506060319 60 299 19.0 31.0 0.00 0.00 0.00 53 1013.0
20260506051319 61 296 25.0 30.0 0.00 0.00 0.00 52 1012.5
20260506050833 61 306 19.0 30.0 0.00 0.00 0.00 52 1012.5
20260506050325 61 278 19.0 28.0 0.00 0.00 0.00 52 1012.5
20260506044819 61 281 20.0 28.0 0.00 0.00 0.00 51 1012.3
20260506044351 61 296 22.0 28.0 0.00 0.00 0.00 51 1012.2
20260506043824 61 296 19.0 33.0 0.00 0.00 0.00 51 1012.2
20260506043315 61 298 21.0 32.0 0.00 0.00 0.00 51 1012.1
20260506042828 61 295 24.0 32.0 0.00 0.00 0.00 51 1012.0
20260506042322 61 284 25.0 32.0 0.00 0.00 0.00 51 1012.0
20260506041836 62 289 21.0 31.0 0.00 0.00 0.00 51 1012.0
20260506041326 62 288 23.0 30.0 0.00 0.00 0.00 51 1012.1
20260506040840 62 275 18.0 32.0 0.00 0.00 0.00 50 1012.0
20260506040331 62 298 25.0 32.0 0.00 0.00 0.00 50 1011.9
20260506035821 62 286 20.0 29.0 0.00 0.00 0.00 50 1011.9
20260506035332 62 286 20.0 30.0 0.00 0.00 0.00 50 1011.8
20260506034826 62 302 23.0 30.0 0.00 0.00 0.00 50 1011.8
20260506034316 62 296 22.0 30.0 0.00 0.00 0.00 50 1011.8
20260506033829 62 302 19.0 27.0 0.00 0.00 0.00 50 1011.8
20260506033344 62 298 18.0 27.0 0.00 0.00 0.00 50 1011.7
20260506032817 62 291 18.0 29.0 0.00 0.00 0.00 49 1011.6
20260506032329 62 314 20.0 29.0 0.00 0.00 0.00 49 1011.5
20260506031823 63 276 19.0 29.0 0.00 0.00 0.00 49 1011.4
20260506031314 63 296 18.0 26.0 0.00 0.00 0.00 49 1011.4
20260506030827 63 300 21.0 26.0 0.00 0.00 0.00 48 1011.4
20260506030319 63 279 19.0 25.0 0.00 0.00 0.00 48 1011.3
20260506025828 63 306 17.0 27.0 0.00 0.00 0.00 48 1011.2
20260506025319 63 304 18.0 27.0 0.00 0.00 0.00 48 1011.1
20260506024815 63 290 19.0 31.0 0.00 0.00 0.00 47 1011.0
20260506024326 63 301 21.0 31.0 0.00 0.00 0.00 47 1011.0
20260506023816 63 281 21.0 29.0 0.00 0.00 0.00 47 1010.9
20260506023326 64 284 20.0 30.0 0.00 0.00 0.00 46 1010.8
20260506022837 64 273 23.0 30.0 0.00 0.00 0.00 46 1010.7
20260506022348 64 277 23.0 29.0 0.00 0.00 0.00 46 1010.4
20260506021820 64 271 22.0 31.0 0.00 0.00 0.00 45 1010.4
20260506021332 65 276 22.0 31.0 0.00 0.00 0.00 45 1010.3
20260506020825 65 253 24.0 34.0 0.00 0.00 0.00 44 1010.2
20260506020321 65 262 25.0 35.0 0.00 0.00 0.00 44 1010.2
20260506015829 66 263 26.0 35.0 0.00 0.00 0.00 43 1010.1
20260506015320 66 271 20.0 35.0 0.00 0.00 0.00 43 1010.1
20260506014832 66 257 25.0 35.0 0.00 0.00 0.00 43 1009.9
20260506014322 66 263 27.0 33.0 0.00 0.00 0.00 42 1009.8
20260506013814 67 290 21.0 33.0 0.00 0.00 0.00 41 1009.9
20260506013326 67 262 24.0 37.0 0.00 0.00 0.00 41 1009.8
20260506012819 67 275 24.0 36.0 0.00 0.00 0.00 41 1009.8
20260506012331 67 277 28.0 36.0 0.00 0.00 0.00 40 1009.7
20260506011827 67 271 26.0 38.0 0.00 0.00 0.00 40 1009.8
20260506011319 68 262 25.0 38.0 0.00 0.00 0.00 40 1009.8
20260506010832 68 262 30.0 37.0 0.00 0.00 0.00 39 1009.7
20260506010322 69 269 24.0 36.0 0.00 0.00 0.00 38 1009.7
20260506005852 69 281 25.0 36.0 0.00 0.00 0.00 37 1009.6
20260506005323 69 289 22.0 33.0 0.00 0.00 0.00 36 1009.7
20260506004836 69 262 23.0 34.0 0.00 0.00 0.00 36 1009.6
20260506004326 69 265 25.0 36.0 0.00 0.00 0.00 36 1009.5
20260506003818 70 274 30.0 35.0 0.00 0.00 0.00 35 1009.5
20260506003349 70 277 26.0 34.0 0.00 0.00 0.00 34 1009.6
20260506002820 71 271 24.0 35.0 0.00 0.00 0.00 34 1009.5
20260506002330 70 261 28.0 35.0 0.00 0.00 0.00 34 1009.5
20260506001826 71 296 22.0 33.0 0.00 0.00 0.00 33 1009.5
20260506001317 71 271 26.0 33.0 0.00 0.00 0.00 33 1009.5
20260506000830 71 260 23.0 32.0 0.00 0.00 0.00 33 1009.5
20260506000341 71 259 23.0 31.0 0.00 0.00 0.00 32 1009.5
20260505235830 72 252 25.0 31.0 0.00 0.00 0.00 32 1009.5
20260505235321 72 270 21.0 31.0 0.00 0.00 0.00 31 1009.5
20260505234814 72 260 24.0 31.0 0.00 0.00 0.00 31 1009.6
20260505234325 72 244 22.0 30.0 0.00 0.00 0.00 30 1009.5
20260505233817 72 261 21.0 32.0 0.00 0.00 0.00 30 1009.5
20260505233313 72 277 23.0 30.0 0.00 0.00 0.00 30 1009.5
20260505232846 73 258 19.0 29.0 0.00 0.00 0.00 29 1009.5
20260505232316 73 248 21.0 31.0 0.00 0.00 0.00 28 1009.5
20260505231828 73 284 22.0 33.0 0.00 0.00 0.00 28 1009.5
20260505231318 73 261 23.0 33.0 0.00 0.00 0.00 28 1009.5
20260505230831 73 249 19.0 29.0 0.00 0.00 0.00 28 1009.6
20260505230321 73 302 19.0 28.0 0.00 0.00 0.00 29 1009.6
20260505225830 73 280 22.0 29.0 0.00 0.00 0.00 29 1009.6
20260505225319 73 281 20.0 29.0 0.00 0.00 0.00 29 1009.7
20260505224815 73 263 20.0 30.0 0.00 0.00 0.00 27 1009.7
20260505224326 73 268 24.0 30.0 0.00 0.00 0.00 28 1009.8
20260505223818 73 275 23.0 30.0 0.00 0.00 0.00 28 1009.8
20260505223328 73 243 20.0 30.0 0.00 0.00 0.00 30 1009.8
20260505222820 72 267 22.0 33.0 0.00 0.00 0.00 28 1009.9
20260505222331 72 257 25.0 33.0 0.00 0.00 0.00 28 1009.9
20260505221823 72 262 23.0 32.0 0.00 0.00 0.00 28 1010.0
20260505221315 73 246 22.0 30.0 0.00 0.00 0.00 28 1010.1
20260505220848 73 266 23.0 29.0 0.00 0.00 0.00 27 1010.2
20260505220320 73 248 23.0 31.0 0.00 0.00 0.00 29 1010.3
20260505215813 73 265 24.0 31.0 0.00 0.00 0.00 28 1010.3
20260505215325 73 275 24.0 33.0 0.00 0.00 0.00 29 1010.4
20260505214818 73 232 24.0 33.0 0.00 0.00 0.00 27 1010.4
20260505214329 73 259 24.0 30.0 0.00 0.00 0.00 29 1010.4
20260505213822 72 256 22.0 29.0 0.00 0.00 0.00 29 1010.5
20260505213332 72 236 19.0 29.0 0.00 0.00 0.00 28 1010.6
20260505212825 73 239 24.0 30.0 0.00 0.00 0.00 27 1010.6
20260505212315 73 270 21.0 28.0 0.00 0.00 0.00 29 1010.7
20260505211831 73 300 21.0 30.0 0.00 0.00 0.00 28 1010.7
20260505211321 73 273 22.0 33.0 0.00 0.00 0.00 29 1010.9
20260505210813 72 251 25.0 33.0 0.00 0.00 0.00 28 1011.0
20260505210324 72 257 27.0 33.0 0.00 0.00 0.00 27 1011.0
20260505205814 72 242 20.0 30.0 0.00 0.00 0.00 30 1011.0
20260505205326 71 261 21.0 32.0 0.00 0.00 0.00 29 1011.0
20260505204839 72 269 23.0 34.0 0.00 0.00 0.00 30 1011.1
20260505204328 72 258 23.0 31.0 0.00 0.00 0.00 28 1011.0
20260505203820 72 275 22.0 29.0 0.00 0.00 0.00 29 1011.1
20260505203351 72 265 21.0 29.0 0.00 0.00 0.00 29 1011.1
20260505202843 72 242 21.0 28.0 0.00 0.00 0.00 29 1011.1
20260505202317 71 298 18.0 28.0 0.00 0.00 0.00 31 1011.1
20260505201850 70 263 22.0 28.0 0.00 0.00 0.00 31 1011.1
20260505201320 70 230 18.0 26.0 0.00 0.00 0.00 31 1011.2
20260505200814 70 246 18.0 26.0 0.00 0.00 0.00 31 1011.3
20260505200326 71 250 19.0 26.0 0.00 0.00 0.00 31 1011.2
20260505195814 72 271 21.0 27.0 0.00 0.00 0.00 30 1011.2
20260505195323 72 273 15.0 30.0 0.00 0.00 0.00 32 1011.4
20260505194835 72 246 19.0 24.0 0.00 0.00 0.00 31 1011.3
20260505194326 72 279 16.0 25.0 0.00 0.00 0.00 31 1011.6
20260505193818 72 236 16.0 25.0 0.00 0.00 0.00 32 1011.6
20260505193328 71 280 17.0 23.0 0.00 0.00 0.00 33 1011.6
20260505192822 71 348 14.0 24.0 0.00 0.00 0.00 32 1011.7
20260505192353 70 220 18.0 24.0 0.00 0.00 0.00 34 1011.7
20260505191843 70 228 14.0 24.0 0.00 0.00 0.00 34 1011.7
20260505191331 70 244 17.0 24.0 0.00 0.00 0.00 35 1011.7
20260505190844 69 260 9.0 19.0 0.00 0.00 0.00 35 1011.8
20260505190314 70 261 5.0 17.0 0.00 0.00 0.00 35 1011.8
20260505185824 69 219 4.0 20.0 0.00 0.00 0.00 36 1011.8
20260505185315 69 236 12.0 20.0 0.00 0.00 0.00 36 1011.8
20260505184826 68 267 11.0 17.0 0.00 0.00 0.00 37 1011.8
20260505184317 68 229 10.0 21.0 0.00 0.00 0.00 37 1011.9
20260505183851 68 261 15.0 23.0 0.00 0.00 0.00 37 1011.9
20260505183322 67 287 12.0 22.0 0.00 0.00 0.00 39 1011.9
20260505182817 68 257 14.0 26.0 0.00 0.00 0.00 38 1011.9
20260505182329 68 281 18.0 26.0 0.00 0.00 0.00 38 1011.9
20260505181822 68 289 16.0 25.0 0.00 0.00 0.00 39 1011.9
20260505181353 68 245 16.0 27.0 0.00 0.00 0.00 38 1011.9
20260505180824 67 267 14.0 20.0 0.00 0.00 0.00 40 1011.9
20260505180314 67 246 12.0 20.0 0.00 0.00 0.00 40 1011.9
20260505175825 68 338 16.0 20.0 0.00 0.00 0.00 40 1011.9
20260505175336 67 244 9.0 23.0 0.00 0.00 0.00 41 1011.8
20260505174825 67 266 16.0 23.0 0.00 0.00 0.00 40 1011.8
20260505174315 67 271 13.0 21.0 0.00 0.00 0.00 41 1011.7
20260505173831 67 263 15.0 23.0 0.00 0.00 0.00 42 1011.7
20260505173323 66 278 15.0 23.0 0.00 0.00 0.00 42 1011.8
20260505172816 66 248 11.0 20.0 0.00 0.00 0.00 43 1011.7
20260505172328 66 251 15.0 24.0 0.00 0.00 0.00 44 1011.7
20260505171819 66 275 13.0 24.0 0.00 0.00 0.00 43 1011.7
20260505171329 66 258 17.0 22.0 0.00 0.00 0.00 44 1011.7
20260505170821 66 261 17.0 25.0 0.00 0.00 0.00 44 1011.7
20260505170332 66 249 20.0 27.0 0.00 0.00 0.00 45 1011.7
20260505165820 65 260 21.0 27.0 0.00 0.00 0.00 45 1011.7
20260505165316 66 256 18.0 27.0 0.00 0.00 0.00 46 1011.8
20260505164829 66 254 18.0 25.0 0.00 0.00 0.00 45 1011.7
20260505164321 65 293 16.0 25.0 0.00 0.00 0.00 46 1011.7
20260505163813 65 264 16.0 26.0 0.00 0.00 0.00 49 1011.6
20260505163346 64 259 19.0 28.0 0.00 0.00 0.00 48 1011.5
20260505162818 64 249 21.0 28.0 0.00 0.00 0.00 48 1011.3
20260505162330 65 249 18.0 26.0 0.00 0.00 0.00 49 1011.4
20260505161843 64 242 19.0 31.0 0.00 0.00 0.00 50 1011.3
20260505161314 63 255 20.0 30.0 0.00 0.00 0.00 50 1011.2
20260505160826 63 262 20.0 27.0 0.00 0.00 0.00 52 1011.1
20260505160321 63 262 20.0 28.0 0.00 0.00 0.00 52 1011.1
20260505153331 63 257 17.0 24.0 0.00 0.00 0.00 51 1010.9
20260505152825 62 240 13.0 22.0 0.00 0.00 0.00 52 1010.9
20260505152336 62 263 17.0 22.0 0.00 0.00 0.00 51 1011.0
20260505151814 62 258 15.0 19.0 0.00 0.00 0.00 51 1010.9
20260505151325 62 265 15.0 24.0 0.00 0.00 0.00 51 1010.8
20260505150818 62 265 19.0 23.0 0.00 0.00 0.00 51 1010.7
20260505150329 62 265 18.0 24.0 0.00 0.00 0.00 51 1010.7
20260505140327 59 271 16.0 23.0 0.00 0.00 0.00 55 1010.4
20260505124814 56 310 11.0 19.0 0.00 0.00 0.00 62 1010.0
20260505124326 56 278 10.0 14.0 0.00 0.00 0.00 63 1010.0
20260505123818 56 296 10.0 13.0 0.00 0.00 0.00 63 1010.0
20260505123350 56 284 9.0 15.0 0.00 0.00 0.00 63 1010.1
20260505122822 56 305 10.0 15.0 0.00 0.00 0.00 63 1010.1
20260505122314 56 296 10.0 13.0 0.00 0.00 0.00 63 1010.1
20260505121827 56 318 11.0 16.0 0.00 0.00 0.00 63 1010.1
20260505121338 56 317 11.0 18.0 0.00 0.00 0.00 62 1010.2
20260505120828 56 315 13.0 20.0 0.00 0.00 0.00 62 1010.1
20260505120323 56 284 14.0 20.0 0.00 0.00 0.00 62 1010.2
20260505115814 57 313 14.0 20.0 0.00 0.00 0.00 62 1010.2
20260505115325 57 300 16.0 20.0 0.00 0.00 0.00 62 1010.2
20260505114816 57 296 15.0 20.0 0.00 0.00 0.00 62 1010.1
20260505114327 57 270 11.0 20.0 0.00 0.00 0.00 62 1010.2
20260505113820 57 300 16.0 20.0 0.00 0.00 0.00 61 1010.3
20260505113330 57 292 14.0 20.0 0.00 0.00 0.00 61 1010.2
20260505112823 58 296 15.0 20.0 0.00 0.00 0.00 59 1010.2
20260505112318 58 286 16.0 20.0 0.00 0.00 0.00 59 1010.1
20260505111831 58 288 13.0 23.0 0.00 0.00 0.00 59 1010.1
20260505111323 58 305 17.0 26.0 0.00 0.00 0.00 59 1010.0
20260505110816 57 317 19.0 25.0 0.00 0.00 0.00 61 1009.8
20260505110328 57 292 18.0 23.0 0.00 0.00 0.00 62 1009.7
20260505101828 57 293 16.0 20.0 0.00 0.00 0.00 62 1010.4
20260505101321 57 282 12.0 19.0 0.00 0.00 0.00 62 1010.3
20260505100813 58 284 13.0 24.0 0.00 0.00 0.00 61 1010.3
20260505100325 58 273 17.0 25.0 0.00 0.00 0.00 61 1010.1